Погода в Юманае

Россия / Чувашская Республика     55°37′23″N   46°41′59″E
темп.,
°C
ветер,
м/с
пор.,
м/с
влажн.,
%
обл.,
%
осадки,
мм/ч
давл.,
гПа
погр.,
м
17 апреля, сб
сб1700:00+7всв5128346 0.0 1025310
03:00+5всв411797 0.0 1026261
06:00+4всв411735 0.0 1026300
09:00+9всв69575 0.0 1026550
12:00+13всв67495 0.0 1025967
15:00+13всв67380 0.0 10241133
18:00+10всв510501 0.0 1024472
21:00+6всв512680 0.0 1024331
18 апреля, вс
вс1800:00+4всв412810 0.0 1024300
03:00+2всв310870 0.0 1024228
06:00+3всв411810 0.0 1024306
09:00+9всв69560 0.0 1024822
12:00+12всв67435 0.0 10231370
15:00+13всв68405 0.0 10231644
18:00+10всв6105887 0.0 1024601
21:00+5всв61273100 0.0 1026570
19 апреля, пн
пн1900:00+4всв51267100 0.0 1027578
03:00+2всв5115992 0.0 1028481
06:00+2всв6126896 0.0 1029577
09:00+4в71048100 0.0 1030939
12:00+6в71037100 0.0 10301407
15:00+7в71036100 0.0 10301562
18:00+5в61142100 0.0 10301105
21:00+4в61443100 0.0 1030648
20 апреля, вт
вт2000:00+2в5145058 0.0 1031488
03:000в5145713 0.0 1031421
06:00+1в614610 0.0 1031472
09:00+6вюв712430 0.0 1031981
12:00+9вюв8113798 0.0 10301207
15:00+10юв8113677 0.0 10281334
18:00+8вюв81438100 0.0 10271068
21:00+6юв71541100 0.0 1027910
21 апреля, ср
ср2100:00+5юв81746100 0.0 1025765
03:00+5юв81849100 0.0 1024790
06:00+4юв81853100 0.0 1022810
09:00+3юв81983100 1.8 1022849
12:00+4юв91780100 1.1 1022885
15:00+4ююв81681100 1.1 1022799
18:00+4ююв71583100 0.0 1023823
21:00+4ююв71586100 0.0 1023668